| time (UTC) | temp C | wind direction | speed KPH | gust KPH | rain 1hr cm | rain 24hr cm | rain mn cm | humidity % | barometer mb |
| 20260505100513 | 33 | 337 | 0.0 | 6.4 | 0.00 | 0.00 | 0.00 | 22 | 1003.6 |
| 20260505090307 | 32 | 315 | 0.0 | 4.8 | 0.00 | 0.00 | 0.00 | 28 | 1004.2 |
| 20260505085914 | 32 | 135 | 0.0 | 1.6 | 0.00 | 0.00 | 0.00 | 29 | 1004.3 |
| 20260505075711 | 28 | 137 | 0.0 | 3.2 | 0.00 | 0.00 | 0.00 | 37 | 0.1 |
| 20260505075708 | 28 | 137 | 0.0 | 3.2 | 0.00 | 0.00 | 0.00 | 37 | 1004.8 |
| 20260505065109 | 23 | 0 | 1.6 | 4.8 | 0.00 | 0.00 | 0.00 | 54 | 1005.4 |
| 20260505054509 | 16 | 150 | 1.6 | 4.8 | 0.00 | 0.00 | 0.00 | 83 | 1005.9 |
| 20260505033704 | 13 | 163 | 0.0 | 0.0 | 0.00 | 0.00 | 0.00 | 82 | 1006.3 |
| 20260505033311 | 13 | 180 | 0.0 | 1.6 | 0.00 | 0.00 | 0.00 | 82 | 1006.2 |
| 20260505023104 | 15 | 135 | 0.0 | 0.0 | 0.00 | 0.00 | 0.00 | 72 | 1006.5 |
| 20260505022712 | 16 | 180 | 0.0 | 0.0 | 0.00 | 0.00 | 0.00 | 72 | 1006.6 |
| 20260505012506 | 17 | 135 | 0.0 | 0.0 | 0.00 | 0.00 | 0.00 | 65 | 1006.6 |
| 20260505001906 | 18 | 161 | 0.0 | 3.2 | 0.00 | 0.00 | 0.00 | 59 | 1006.8 |
| 20260504231307 | 19 | 180 | 0.0 | 1.6 | 0.00 | 0.00 | 0.00 | 54 | 1007.6 |
| 20260504220708 | 20 | 270 | 0.0 | 1.6 | 0.00 | 0.00 | 0.00 | 51 | 1008.0 |
| 20260504210501 | 21 | 333 | 3.2 | 6.4 | 0.00 | 0.00 | 0.00 | 45 | 1008.4 |
| 20260504210109 | 21 | 333 | 3.2 | 12.9 | 0.00 | 0.00 | 0.00 | 45 | 1008.4 |
| 20260504195902 | 22 | 180 | 0.0 | 1.6 | 0.00 | 0.00 | 0.00 | 39 | 1007.9 |
| 20260504185304 | 23 | 16 | 0.0 | 1.6 | 0.00 | 0.00 | 0.00 | 35 | 1007.5 |
| 20260504174704 | 26 | 11 | 4.8 | 6.4 | 0.00 | 0.00 | 0.00 | 27 | 1007.2 |